User: anonymous   Login
Location: Unspecified
(0.0000°N, 0.0000°E)
Time: 07:09:43
(UTC+00:00)
Language:

Aussat K1 - Orbit

View from above orbital plane
View from above orbital plane
View from above satellite
View from above satellite

Ground track
Ground track

The orbit data is extracted from the following two-line orbital elements,

1 15993U 85076B   21215.35373628 -.00000198  00000-0  00000-0 0  9990
2 15993  14.7594 352.6267 0004932  42.4737 207.8030  0.99770447101846
Epoch (UTC): 03 August 2021 08:29:22
Eccentricity: 0.0004932
inclination: 14.7594°
perigee height: 35906 km
apogee height: 35948 km
right ascension of ascending node: 352.6267°
argument of perigee: 42.4737°
revolutions per day: 0.99770447
mean anomaly at epoch: 207.8030°
orbit number at epoch: 10184

The dashed part of the orbit path shows where the satellite is in the earth's shadow,  

DLR